Location: Grisols
(45.0093°N, 3.1167°E)
Time: 01:35:39
(UTC+00:00)

COBE Rocket - Pass Details

Date: 21 October 2019
Orbit: 680 x 782 km, 97.1° (Epoch: 14 November)

Event Time Altitude Azimuth Distance (km) Brightness Sun altitude
Rises 17:13:30 0° 17° (NNE) 3,270 7.0 -4.3°
Reaches altitude 10° 17:15:57 10° 23° (NNE) 2,330 6.2 -4.8°
Maximum altitude 17:20:53 46° 97° (E) 1,026 4.3 -5.6°
Drops below altitude 10° 17:25:41 10° 170° (S) 2,263 6.4 -6.5°
Sets 17:28:02 0° 176° (S) 3,167 7.3 -6.9°
